Year,Month,Day,Hour,Minute,Value (Times are PST for temperature in C)
2015,09,18,08,32,12.60
2015,09,18,08,33,12.60
2015,09,18,08,34,12.60
2015,09,18,08,35,12.60
2015,09,18,08,36,12.60
2015,09,18,08,37,12.60
2015,09,18,08,38,12.70
2015,09,18,08,39,12.70
2015,09,18,08,40,12.70
2015,09,18,08,41,12.70
2015,09,18,08,42,12.70
2015,09,18,08,43,12.70
2015,09,18,08,44,12.70
2015,09,18,08,45,12.70
2015,09,18,08,46,12.70
2015,09,18,08,47,12.70
2015,09,18,08,48,12.70
2015,09,18,08,49,12.80
2015,09,18,08,50,12.80
2015,09,18,08,51,12.80
2015,09,18,08,52,12.80
2015,09,18,08,53,12.80
2015,09,18,08,54,12.80
2015,09,18,08,55,12.80
2015,09,18,08,56,12.90
2015,09,18,08,57,12.90
2015,09,18,08,58,12.90
2015,09,18,08,59,12.90
2015,09,18,09,00,12.90
2015,09,18,09,01,13.00
2015,09,18,09,02,13.00
2015,09,18,09,03,13.00
2015,09,18,09,04,13.10
2015,09,18,09,05,13.10
2015,09,18,09,06,13.10
2015,09,18,09,07,13.10
2015,09,18,09,08,13.20
2015,09,18,09,09,13.20
2015,09,18,09,10,13.20
2015,09,18,09,11,13.20
2015,09,18,09,12,13.20
2015,09,18,09,13,13.20
2015,09,18,09,14,13.30
2015,09,18,09,15,13.30
2015,09,18,09,16,13.30
2015,09,18,09,17,13.30
2015,09,18,09,18,13.30
2015,09,18,09,19,13.30
2015,09,18,09,20,13.30
2015,09,18,09,21,13.30
2015,09,18,09,22,13.30
2015,09,18,09,23,13.30
2015,09,18,09,24,13.30
2015,09,18,09,25,13.30
2015,09,18,09,26,13.30
2015,09,18,09,27,13.30
2015,09,18,09,28,13.30
2015,09,18,09,29,13.30
2015,09,18,09,30,13.30
2015,09,18,09,31,13.30
2015,09,18,09,32,13.30
2015,09,18,09,33,13.30
2015,09,18,09,34,13.40
2015,09,18,09,35,13.40
2015,09,18,09,36,13.40
2015,09,18,09,37,13.40
2015,09,18,09,38,13.40
2015,09,18,09,39,13.40
2015,09,18,09,40,13.40
2015,09,18,09,41,13.40
2015,09,18,09,42,13.40
2015,09,18,09,43,13.40
2015,09,18,09,44,13.40
2015,09,18,09,45,13.40
2015,09,18,09,46,13.50
2015,09,18,09,47,13.40
2015,09,18,09,48,13.40
2015,09,18,09,49,13.50
2015,09,18,09,50,13.50
2015,09,18,09,51,13.50
2015,09,18,09,52,13.60
2015,09,18,09,53,13.50
2015,09,18,09,54,13.50
2015,09,18,09,55,13.50
2015,09,18,09,56,13.50
2015,09,18,09,57,13.60
2015,09,18,09,58,13.60
2015,09,18,09,59,13.60
2015,09,18,10,00,13.60
2015,09,18,10,01,13.60
2015,09,18,10,02,13.60
2015,09,18,10,03,13.60
2015,09,18,10,04,13.60
2015,09,18,10,05,13.60
2015,09,18,10,06,13.60
2015,09,18,10,07,13.60
2015,09,18,10,08,13.60
2015,09,18,10,09,13.60
2015,09,18,10,10,13.70
2015,09,18,10,11,13.70
2015,09,18,10,12,13.70
2015,09,18,10,13,13.70
2015,09,18,10,14,13.70
2015,09,18,10,15,13.70
2015,09,18,10,16,13.70
2015,09,18,10,17,13.80
2015,09,18,10,18,13.80
2015,09,18,10,19,13.80
2015,09,18,10,20,13.80
2015,09,18,10,21,13.80
2015,09,18,10,22,13.80
2015,09,18,10,23,13.80
2015,09,18,10,24,13.80
2015,09,18,10,25,13.90
2015,09,18,10,26,13.90
2015,09,18,10,27,13.90
2015,09,18,10,28,13.90
2015,09,18,10,29,13.90
2015,09,18,10,30,13.90
2015,09,18,10,31,13.80
2015,09,18,10,32,13.80
2015,09,18,10,33,13.80
2015,09,18,10,34,13.80
2015,09,18,10,35,13.80
2015,09,18,10,36,13.80
2015,09,18,10,37,13.80
2015,09,18,10,38,13.90
2015,09,18,10,39,13.90
2015,09,18,10,40,13.90
2015,09,18,10,41,13.90
2015,09,18,10,42,13.90
2015,09,18,10,43,13.90
2015,09,18,10,44,14.00
2015,09,18,10,45,14.00
2015,09,18,10,46,14.00
2015,09,18,10,47,14.00
2015,09,18,10,48,14.00
2015,09,18,10,49,14.00
2015,09,18,10,50,14.00
2015,09,18,10,51,14.00
2015,09,18,10,52,14.00
2015,09,18,10,53,14.00
2015,09,18,10,54,14.00
2015,09,18,10,55,14.00
2015,09,18,10,56,14.00
2015,09,18,10,57,14.10
2015,09,18,10,58,14.20
2015,09,18,10,59,14.20
2015,09,18,11,00,14.30
2015,09,18,11,01,14.30
2015,09,18,11,02,14.30
2015,09,18,11,03,14.30
2015,09,18,11,04,14.30
2015,09,18,11,05,14.30
2015,09,18,11,06,14.20
2015,09,18,11,07,14.20
2015,09,18,11,08,14.20
2015,09,18,11,09,14.20
2015,09,18,11,10,14.20
2015,09,18,11,11,14.20
2015,09,18,11,12,14.20
2015,09,18,11,13,14.20
2015,09,18,11,14,14.10
2015,09,18,11,15,14.20
2015,09,18,11,16,14.20
2015,09,18,11,17,14.20
2015,09,18,11,18,14.20
2015,09,18,11,19,14.20
2015,09,18,11,20,14.20
2015,09,18,11,21,14.20
2015,09,18,11,22,14.20
2015,09,18,11,23,14.20
2015,09,18,11,24,14.20
2015,09,18,11,25,14.20
2015,09,18,11,26,14.20
2015,09,18,11,27,14.20
2015,09,18,11,28,14.20
2015,09,18,11,29,14.20
2015,09,18,11,30,14.20
2015,09,18,11,31,14.20
2015,09,18,11,32,14.20
2015,09,18,11,33,14.20
2015,09,18,11,34,14.20
2015,09,18,11,35,14.20
2015,09,18,11,36,14.20
2015,09,18,11,37,14.20
2015,09,18,11,38,14.20
2015,09,18,11,39,14.20
2015,09,18,11,40,14.20
2015,09,18,11,41,14.20
2015,09,18,11,42,14.30
2015,09,18,11,43,14.30
2015,09,18,11,44,14.30
2015,09,18,11,45,14.30
2015,09,18,11,46,14.40
2015,09,18,11,47,14.40
2015,09,18,11,48,14.40
2015,09,18,11,49,14.40
2015,09,18,11,50,14.40
2015,09,18,11,51,14.40
2015,09,18,11,52,14.40
2015,09,18,11,53,14.40
2015,09,18,11,54,14.40
2015,09,18,11,55,14.40
2015,09,18,11,56,14.40
2015,09,18,11,57,14.50
2015,09,18,11,58,14.40
2015,09,18,11,59,14.40
2015,09,18,12,00,14.40
2015,09,18,12,01,14.40
2015,09,18,12,02,14.30
2015,09,18,12,03,14.30
2015,09,18,12,04,14.30
2015,09,18,12,05,14.30
2015,09,18,12,06,14.30
2015,09,18,12,07,14.30
2015,09,18,12,08,14.40
2015,09,18,12,09,14.40
2015,09,18,12,10,14.40
2015,09,18,12,11,14.50
2015,09,18,12,12,14.60
2015,09,18,12,13,14.60
2015,09,18,12,14,14.70
2015,09,18,12,15,14.70
2015,09,18,12,16,14.70
2015,09,18,12,17,14.70
2015,09,18,12,18,14.80
2015,09,18,12,19,14.80
2015,09,18,12,20,14.90
2015,09,18,12,21,14.90
2015,09,18,12,22,14.90
2015,09,18,12,23,14.80
2015,09,18,12,24,14.90
2015,09,18,12,25,14.90
2015,09,18,12,26,14.90
2015,09,18,12,27,14.90
2015,09,18,12,28,14.90
2015,09,18,12,29,14.90
2015,09,18,12,30,14.80
2015,09,18,12,31,14.80
2015,09,18,12,32,14.80
2015,09,18,12,33,14.80
2015,09,18,12,34,14.80
2015,09,18,12,35,14.80
2015,09,18,12,36,14.80
2015,09,18,12,37,14.80
2015,09,18,12,38,14.90
2015,09,18,12,39,14.90
2015,09,18,12,40,14.90
2015,09,18,12,41,14.90
2015,09,18,12,42,14.90
2015,09,18,12,43,14.90
2015,09,18,12,44,15.00
2015,09,18,12,45,15.00
2015,09,18,12,46,15.00
2015,09,18,12,47,15.10
2015,09,18,12,48,15.10
2015,09,18,12,49,15.10
2015,09,18,12,50,15.10
2015,09,18,12,51,15.10
2015,09,18,12,52,15.10
2015,09,18,12,53,15.20
2015,09,18,12,54,15.30
2015,09,18,12,55,15.30
2015,09,18,12,56,15.30
2015,09,18,12,57,15.30
2015,09,18,12,58,15.30
2015,09,18,12,59,15.40
2015,09,18,13,00,15.40
2015,09,18,13,01,15.40
2015,09,18,13,02,15.50
2015,09,18,13,03,15.40
2015,09,18,13,04,15.40
2015,09,18,13,05,15.40
2015,09,18,13,06,15.30
2015,09,18,13,07,15.30
2015,09,18,13,08,15.30
2015,09,18,13,09,15.30
2015,09,18,13,10,15.30
2015,09,18,13,11,15.30
2015,09,18,13,12,15.30
2015,09,18,13,13,15.30
2015,09,18,13,14,15.30
2015,09,18,13,15,15.30
2015,09,18,13,16,15.40
2015,09,18,13,17,15.40
2015,09,18,13,18,15.50
2015,09,18,13,19,15.50
2015,09,18,13,20,15.50
2015,09,18,13,21,15.40
2015,09,18,13,22,15.40
2015,09,18,13,23,15.40
2015,09,18,13,24,15.40
2015,09,18,13,25,15.40
2015,09,18,13,26,15.40
2015,09,18,13,27,15.30
2015,09,18,13,28,15.30
2015,09,18,13,29,15.40
2015,09,18,13,30,15.40
2015,09,18,13,31,15.40
2015,09,18,13,32,15.40
2015,09,18,13,33,15.40
2015,09,18,13,34,15.30
2015,09,18,13,35,15.30
2015,09,18,13,36,15.40
2015,09,18,13,37,15.40
2015,09,18,13,38,15.40
2015,09,18,13,39,15.40
2015,09,18,13,40,15.40
2015,09,18,13,41,15.30
2015,09,18,13,42,15.30
2015,09,18,13,43,15.30
2015,09,18,13,44,15.30
2015,09,18,13,45,15.40
2015,09,18,13,46,15.40
2015,09,18,13,47,15.50
2015,09,18,13,48,15.50
2015,09,18,13,49,15.60
2015,09,18,13,50,15.60
2015,09,18,13,51,15.60
2015,09,18,13,52,15.50
2015,09,18,13,53,15.50
2015,09,18,13,54,15.40
2015,09,18,13,55,15.40
2015,09,18,13,56,15.40
2015,09,18,13,57,15.40
2015,09,18,13,58,15.40
2015,09,18,13,59,15.40
2015,09,18,14,00,15.40
2015,09,18,14,01,15.40
2015,09,18,14,02,15.40
2015,09,18,14,03,15.40
2015,09,18,14,04,15.50
2015,09,18,14,05,15.50
2015,09,18,14,06,15.50
2015,09,18,14,07,15.50
2015,09,18,14,08,15.50
2015,09,18,14,09,15.50
2015,09,18,14,10,15.50
2015,09,18,14,11,15.50
2015,09,18,14,12,15.60
2015,09,18,14,13,15.60
2015,09,18,14,14,15.70
2015,09,18,14,15,15.70
2015,09,18,14,16,15.70
2015,09,18,14,17,15.70
2015,09,18,14,18,15.70
2015,09,18,14,19,15.70
2015,09,18,14,20,15.70
2015,09,18,14,21,15.70
2015,09,18,14,22,15.80
2015,09,18,14,23,15.80
2015,09,18,14,24,15.80
2015,09,18,14,25,15.80
2015,09,18,14,26,15.80
2015,09,18,14,27,15.80
2015,09,18,14,28,15.70
2015,09,18,14,29,15.70
2015,09,18,14,30,15.80
2015,09,18,14,31,15.80
2015,09,18,14,32,15.90
2015,09,18,14,33,15.90
2015,09,18,14,34,15.90
2015,09,18,14,35,16.00
2015,09,18,14,36,16.00
2015,09,18,14,37,16.00
2015,09,18,14,38,16.00
2015,09,18,14,39,16.00
2015,09,18,14,40,16.00
2015,09,18,14,41,16.00
2015,09,18,14,42,16.00
2015,09,18,14,43,16.00
2015,09,18,14,44,16.00
2015,09,18,14,45,15.90
2015,09,18,14,46,15.90
2015,09,18,14,47,16.00
2015,09,18,14,48,16.00
2015,09,18,14,49,16.00
2015,09,18,14,50,16.00
2015,09,18,14,51,16.00
2015,09,18,14,52,16.00
2015,09,18,14,53,16.00
2015,09,18,14,54,16.00
2015,09,18,14,55,15.90
2015,09,18,14,56,15.90
2015,09,18,14,57,15.90
2015,09,18,14,58,15.90
2015,09,18,14,59,15.90
2015,09,18,15,00,15.90
2015,09,18,15,01,15.90
2015,09,18,15,02,15.90
2015,09,18,15,03,16.00
2015,09,18,15,04,16.00
2015,09,18,15,05,16.00
2015,09,18,15,06,16.10
2015,09,18,15,07,16.10
2015,09,18,15,08,16.10
2015,09,18,15,09,16.10
2015,09,18,15,10,16.10
2015,09,18,15,11,16.10
2015,09,18,15,12,16.10
2015,09,18,15,13,16.10
2015,09,18,15,14,16.10
2015,09,18,15,15,16.10
2015,09,18,15,16,16.10
2015,09,18,15,17,16.00
2015,09,18,15,18,16.00
2015,09,18,15,19,15.90
2015,09,18,15,20,15.90
2015,09,18,15,21,15.90
2015,09,18,15,22,15.80
2015,09,18,15,23,15.80
2015,09,18,15,24,15.90
2015,09,18,15,25,15.90
2015,09,18,15,26,15.80
2015,09,18,15,27,15.80
2015,09,18,15,28,15.80
2015,09,18,15,29,15.80
2015,09,18,15,30,15.80
2015,09,18,15,31,15.80
2015,09,18,15,32,15.80
2015,09,18,15,33,15.80
2015,09,18,15,34,15.80
2015,09,18,15,35,15.80
2015,09,18,15,36,15.80
2015,09,18,15,37,15.80
2015,09,18,15,38,15.80
2015,09,18,15,39,15.80
2015,09,18,15,40,15.90
2015,09,18,15,41,15.90
2015,09,18,15,42,16.00
2015,09,18,15,43,16.00
2015,09,18,15,44,16.00
2015,09,18,15,45,16.10
2015,09,18,15,46,16.10
2015,09,18,15,47,16.10
2015,09,18,15,48,16.10
2015,09,18,15,49,16.00
2015,09,18,15,50,16.00
2015,09,18,15,51,16.00
2015,09,18,15,52,15.90
2015,09,18,15,53,15.90
2015,09,18,15,54,15.90
2015,09,18,15,55,15.90
2015,09,18,15,56,15.90
2015,09,18,15,57,15.90
2015,09,18,15,58,16.00
2015,09,18,15,59,16.00
2015,09,18,16,00,15.90
2015,09,18,16,01,15.90
2015,09,18,16,02,15.90
2015,09,18,16,03,15.80
2015,09,18,16,04,15.80
2015,09,18,16,05,15.80
2015,09,18,16,06,15.70
2015,09,18,16,07,15.70
2015,09,18,16,08,15.60
2015,09,18,16,09,15.60
2015,09,18,16,10,15.60
2015,09,18,16,11,15.60
2015,09,18,16,12,15.50
2015,09,18,16,13,15.50
2015,09,18,16,14,15.50
2015,09,18,16,15,15.40
2015,09,18,16,16,15.40
2015,09,18,16,17,15.40
2015,09,18,16,18,15.40
2015,09,18,16,19,15.40
2015,09,18,16,20,15.40
2015,09,18,16,21,15.40
2015,09,18,16,22,15.40
2015,09,18,16,23,15.40
2015,09,18,16,24,15.40
2015,09,18,16,25,15.40
2015,09,18,16,26,15.40
2015,09,18,16,27,15.40
2015,09,18,16,28,15.40
2015,09,18,16,29,15.40
2015,09,18,16,30,15.40
2015,09,18,16,31,15.50
2015,09,18,16,32,15.50
2015,09,18,16,33,15.50
2015,09,18,16,34,15.60
2015,09,18,16,35,15.60
2015,09,18,16,36,15.60
2015,09,18,16,37,15.60
2015,09,18,16,38,15.60
2015,09,18,16,39,15.70
2015,09,18,16,40,15.70
2015,09,18,16,41,15.70
2015,09,18,16,42,15.70
2015,09,18,16,43,15.70
2015,09,18,16,44,15.70
2015,09,18,16,45,15.70
2015,09,18,16,46,15.70
2015,09,18,16,47,15.70
2015,09,18,16,48,15.70
2015,09,18,16,49,15.70
2015,09,18,16,50,15.70
2015,09,18,16,51,15.60
2015,09,18,16,52,15.60
2015,09,18,16,53,15.60
2015,09,18,16,54,15.60
2015,09,18,16,55,15.60
2015,09,18,16,56,15.60
2015,09,18,16,57,15.60
2015,09,18,16,58,15.60
2015,09,18,16,59,15.60
2015,09,18,17,00,15.60
2015,09,18,17,01,15.60
2015,09,18,17,02,15.50
2015,09,18,17,03,15.50
2015,09,18,17,04,15.50
2015,09,18,17,05,15.40
2015,09,18,17,06,15.40
2015,09,18,17,07,15.40
2015,09,18,17,08,15.40
2015,09,18,17,09,15.30
2015,09,18,17,10,15.30
2015,09,18,17,11,15.20
2015,09,18,17,12,15.20
2015,09,18,17,13,15.20
2015,09,18,17,14,15.20
2015,09,18,17,15,15.10
2015,09,18,17,16,15.10
2015,09,18,17,17,15.00
2015,09,18,17,18,15.00
2015,09,18,17,19,15.00
2015,09,18,17,20,15.00
2015,09,18,17,21,15.00
2015,09,18,17,22,14.90
2015,09,18,17,23,14.90
2015,09,18,17,24,14.90
2015,09,18,17,25,14.90
2015,09,18,17,26,14.90
2015,09,18,17,27,14.90
2015,09,18,17,28,14.90
2015,09,18,17,29,14.80
2015,09,18,17,30,14.80
2015,09,18,17,31,14.80
2015,09,18,17,32,14.80
2015,09,18,17,33,14.80
2015,09,18,17,34,14.90
2015,09,18,17,35,14.90
2015,09,18,17,36,14.90
2015,09,18,17,37,14.90
2015,09,18,17,38,14.90
2015,09,18,17,39,14.80
2015,09,18,17,40,14.80
2015,09,18,17,41,14.80
2015,09,18,17,42,14.80
2015,09,18,17,43,14.80
2015,09,18,17,44,14.80
2015,09,18,17,45,14.80
2015,09,18,17,46,14.80
2015,09,18,17,47,14.80
2015,09,18,17,48,14.90
2015,09,18,17,49,14.90
2015,09,18,17,50,14.90
2015,09,18,17,51,14.90
2015,09,18,17,52,14.90
2015,09,18,17,53,15.00
2015,09,18,17,54,15.00
2015,09,18,17,55,15.00
2015,09,18,17,56,15.10
2015,09,18,17,57,15.10
2015,09,18,17,58,15.10
2015,09,18,17,59,15.10
2015,09,18,18,00,15.10
2015,09,18,18,01,15.10
2015,09,18,18,02,15.10
2015,09,18,18,03,15.10
2015,09,18,18,04,15.10
2015,09,18,18,05,15.00
2015,09,18,18,06,15.00
2015,09,18,18,07,15.00
2015,09,18,18,08,15.00
2015,09,18,18,09,15.00
2015,09,18,18,10,14.90
2015,09,18,18,11,14.90
2015,09,18,18,12,14.90
2015,09,18,18,13,14.90
2015,09,18,18,14,14.90
2015,09,18,18,15,14.90
2015,09,18,18,16,14.90
2015,09,18,18,17,14.90
2015,09,18,18,18,14.90
2015,09,18,18,19,14.90
2015,09,18,18,20,14.90
2015,09,18,18,21,14.90
2015,09,18,18,22,14.90
2015,09,18,18,23,14.90
2015,09,18,18,24,14.90
2015,09,18,18,25,14.90
2015,09,18,18,26,14.80
2015,09,18,18,27,14.80
2015,09,18,18,28,14.80
2015,09,18,18,29,14.80
2015,09,18,18,30,14.80
2015,09,18,18,31,14.80
2015,09,18,18,32,14.80
2015,09,18,18,33,14.80
2015,09,18,18,34,14.80
2015,09,18,18,35,14.80
2015,09,18,18,36,14.80
2015,09,18,18,37,14.80
2015,09,18,18,38,14.80
2015,09,18,18,39,14.80
2015,09,18,18,40,14.80
2015,09,18,18,41,14.80
2015,09,18,18,42,14.80
2015,09,18,18,43,14.80
2015,09,18,18,44,14.80
2015,09,18,18,45,14.80
2015,09,18,18,46,14.80
2015,09,18,18,47,14.80
2015,09,18,18,48,14.80
2015,09,18,18,49,14.80
2015,09,18,18,50,14.80
2015,09,18,18,51,14.80
2015,09,18,18,52,14.80
2015,09,18,18,53,14.80
2015,09,18,18,54,14.80
2015,09,18,18,55,14.80
2015,09,18,18,56,14.80
2015,09,18,18,57,14.80
2015,09,18,18,58,14.80
2015,09,18,18,59,14.80
2015,09,18,19,00,14.80
2015,09,18,19,01,14.80
2015,09,18,19,02,14.80
2015,09,18,19,03,14.80
2015,09,18,19,04,14.80
2015,09,18,19,05,14.80
2015,09,18,19,06,14.80
2015,09,18,19,07,14.70
2015,09,18,19,08,14.70
2015,09,18,19,09,14.70
2015,09,18,19,10,14.70
2015,09,18,19,11,14.70
2015,09,18,19,12,14.70
2015,09,18,19,13,14.70
2015,09,18,19,14,14.70
2015,09,18,19,15,14.70
2015,09,18,19,16,14.70
2015,09,18,19,17,14.70
2015,09,18,19,18,14.70
2015,09,18,19,19,14.70
2015,09,18,19,20,14.70
2015,09,18,19,21,14.70
2015,09,18,19,22,14.70
2015,09,18,19,23,14.70
2015,09,18,19,24,14.70
2015,09,18,19,25,14.70
2015,09,18,19,26,14.70
2015,09,18,19,27,14.60
2015,09,18,19,28,14.60
2015,09,18,19,29,14.60
2015,09,18,19,30,14.60
2015,09,18,19,31,14.60
2015,09,18,19,32,14.60
2015,09,18,19,33,14.60
2015,09,18,19,34,14.60
2015,09,18,19,35,14.60
2015,09,18,19,36,14.60
2015,09,18,19,37,14.60
2015,09,18,19,38,14.60
2015,09,18,19,39,14.60
2015,09,18,19,40,14.60
2015,09,18,19,41,14.60
2015,09,18,19,42,14.60
2015,09,18,19,43,14.60
2015,09,18,19,44,14.60
2015,09,18,19,45,14.60
2015,09,18,19,46,14.60
2015,09,18,19,47,14.60
2015,09,18,19,48,14.60
2015,09,18,19,49,14.60
2015,09,18,19,50,14.60
2015,09,18,19,51,14.50
2015,09,18,19,52,14.50
2015,09,18,19,53,14.50
2015,09,18,19,54,14.50
2015,09,18,19,55,14.50
2015,09,18,19,56,14.50
2015,09,18,19,57,14.50
2015,09,18,19,58,14.40
2015,09,18,19,59,14.40
2015,09,18,20,00,14.40
2015,09,18,20,01,14.40
2015,09,18,20,02,14.40
2015,09,18,20,03,14.40
2015,09,18,20,04,14.40
2015,09,18,20,05,14.40
2015,09,18,20,06,14.40
2015,09,18,20,07,14.40
2015,09,18,20,08,14.30
2015,09,18,20,09,14.30
2015,09,18,20,10,14.30
2015,09,18,20,11,14.30
2015,09,18,20,12,14.30
2015,09,18,20,13,14.30
2015,09,18,20,14,14.30
2015,09,18,20,15,14.30
2015,09,18,20,16,14.30
2015,09,18,20,17,14.30
2015,09,18,20,18,14.30
2015,09,18,20,19,14.30
2015,09,18,20,20,14.30
2015,09,18,20,21,14.30
2015,09,18,20,22,14.30
2015,09,18,20,23,14.30
2015,09,18,20,24,14.30
2015,09,18,20,25,14.30
2015,09,18,20,26,14.30
2015,09,18,20,27,14.30
2015,09,18,20,28,14.30
2015,09,18,20,29,14.30
2015,09,18,20,30,14.30
2015,09,18,20,31,14.30
2015,09,18,20,32,14.30
2015,09,18,20,33,14.30
2015,09,18,20,34,14.30
2015,09,18,20,35,14.30
2015,09,18,20,36,14.30
2015,09,18,20,37,14.30
2015,09,18,20,38,14.30
2015,09,18,20,39,14.30
2015,09,18,20,40,14.30
2015,09,18,20,41,14.30
2015,09,18,20,42,14.30
2015,09,18,20,43,14.30
2015,09,18,20,44,14.30
2015,09,18,20,45,14.30
2015,09,18,20,46,14.30
2015,09,18,20,47,14.30
2015,09,18,20,48,14.30
2015,09,18,20,49,14.30
2015,09,18,20,50,14.30
2015,09,18,20,51,14.30
2015,09,18,20,52,14.30
2015,09,18,20,53,14.20
2015,09,18,20,54,14.20
2015,09,18,20,55,14.20
2015,09,18,20,56,14.20
2015,09,18,20,57,14.20
2015,09,18,20,58,14.20
2015,09,18,20,59,14.20
2015,09,18,21,00,14.20
2015,09,18,21,01,14.20
2015,09,18,21,02,14.20
2015,09,18,21,03,14.20
2015,09,18,21,04,14.20
2015,09,18,21,05,14.20
2015,09,18,21,06,14.20
2015,09,18,21,07,14.20
2015,09,18,21,08,14.20
2015,09,18,21,09,14.20
2015,09,18,21,10,14.20
2015,09,18,21,11,14.20
2015,09,18,21,12,14.20
2015,09,18,21,13,14.20
2015,09,18,21,14,14.20
2015,09,18,21,15,14.20
2015,09,18,21,16,14.10
2015,09,18,21,17,14.10
2015,09,18,21,18,14.10
2015,09,18,21,19,14.10
2015,09,18,21,20,14.10
2015,09,18,21,21,14.10
2015,09,18,21,22,14.10
2015,09,18,21,23,14.10
2015,09,18,21,24,14.10
2015,09,18,21,25,14.10
2015,09,18,21,26,14.10
2015,09,18,21,27,14.10
2015,09,18,21,28,14.10
2015,09,18,21,29,14.10
2015,09,18,21,30,14.10
2015,09,18,21,31,14.10
2015,09,18,21,32,14.10
2015,09,18,21,33,14.10
2015,09,18,21,34,14.10
2015,09,18,21,35,14.10
2015,09,18,21,36,14.10
2015,09,18,21,37,14.10
2015,09,18,21,38,14.10
2015,09,18,21,39,14.10
2015,09,18,21,40,14.10
2015,09,18,21,41,14.10
2015,09,18,21,42,14.10
2015,09,18,21,43,14.10
2015,09,18,21,44,14.10
2015,09,18,21,45,14.10
2015,09,18,21,46,14.10
2015,09,18,21,47,14.10
2015,09,18,21,48,14.00
2015,09,18,21,49,14.00
2015,09,18,21,50,14.00
2015,09,18,21,51,14.00
2015,09,18,21,52,14.00
2015,09,18,21,53,14.00
2015,09,18,21,54,14.00
2015,09,18,21,55,14.00
2015,09,18,21,56,14.00
2015,09,18,21,57,14.00
2015,09,18,21,58,14.00
2015,09,18,21,59,14.00
2015,09,18,22,00,14.00
2015,09,18,22,01,14.00
2015,09,18,22,02,14.00
2015,09,18,22,03,14.00
2015,09,18,22,04,14.00
2015,09,18,22,05,14.00
2015,09,18,22,06,14.00
2015,09,18,22,07,14.00
2015,09,18,22,08,14.00
2015,09,18,22,09,14.00
2015,09,18,22,10,14.00
2015,09,18,22,11,14.00
2015,09,18,22,12,14.00
2015,09,18,22,13,14.00
2015,09,18,22,14,14.00
2015,09,18,22,15,14.00
2015,09,18,22,16,14.00
2015,09,18,22,17,14.00
2015,09,18,22,18,14.00
2015,09,18,22,19,14.00
2015,09,18,22,20,14.00
2015,09,18,22,21,14.00
2015,09,18,22,22,14.00
2015,09,18,22,23,14.00
2015,09,18,22,24,14.00
2015,09,18,22,25,14.00
2015,09,18,22,26,14.00
2015,09,18,22,27,14.00
2015,09,18,22,28,14.00
2015,09,18,22,29,14.00
2015,09,18,22,30,14.00
2015,09,18,22,31,14.00
2015,09,18,22,32,14.00
2015,09,18,22,33,14.00
2015,09,18,22,34,14.00
2015,09,18,22,35,14.00
2015,09,18,22,36,14.00
2015,09,18,22,37,14.00
2015,09,18,22,38,14.00
2015,09,18,22,39,14.00
2015,09,18,22,40,14.00
2015,09,18,22,41,14.00
2015,09,18,22,42,14.00
2015,09,18,22,43,14.00
2015,09,18,22,44,14.00
2015,09,18,22,45,14.00
2015,09,18,22,46,14.00
2015,09,18,22,47,14.00
2015,09,18,22,48,14.00
2015,09,18,22,49,14.00
2015,09,18,22,50,13.90
2015,09,18,22,51,13.90
2015,09,18,22,52,13.90
2015,09,18,22,53,13.90
2015,09,18,22,54,14.00
2015,09,18,22,55,14.00
2015,09,18,22,56,13.90
2015,09,18,22,57,13.90
2015,09,18,22,58,14.00
2015,09,18,22,59,14.00
2015,09,18,23,00,14.00
2015,09,18,23,01,14.00
2015,09,18,23,02,14.00
2015,09,18,23,03,14.00
2015,09,18,23,04,14.00
2015,09,18,23,05,14.00
2015,09,18,23,06,14.00
2015,09,18,23,07,14.00
2015,09,18,23,08,14.00
2015,09,18,23,09,13.90
2015,09,18,23,10,13.90
2015,09,18,23,11,13.90
2015,09,18,23,12,13.90
2015,09,18,23,13,13.90
2015,09,18,23,14,13.90
2015,09,18,23,15,13.90
2015,09,18,23,16,13.90
2015,09,18,23,17,13.90
2015,09,18,23,18,13.90
2015,09,18,23,19,13.90
